Location: Franzen
(48.6167°N, 15.3833°E)
Time: 06:29:28
(UTC+00:00)

Altair - Pass Details

Date: 11 August 2021
Orbit: 1501 x 1682 km, 47.2° (Epoch: 21 September)

Event Time Altitude Azimuth Distance (km) Brightness Sun altitude
Rises 23:49:14 0° 255° (WSW) 4,792 9.8 -25.3°
Reaches altitude 10° 23:52:22 10° 254° (WSW) 3,783 9.3 -25.2°
Maximum altitude 00:01:55 80° 170° (S) 1,565 7.3 -24.8°
Drops below altitude 10° 00:11:09 10° 85° (E) 3,670 9.7 -24.4°
Sets 00:14:09 0° 85° (E) 4,642 10.3 -24.2°
